Tarawa Terrace, NC

5:18 AM EDT on August 25, 2016 (GMT -0400)
New River Marine Corps Air Station

Weather History for KNCA - December, 2014

Change the Weather History Date:

Tuesday, December 23, 2014

  Actual Average Record
Temperature  
Mean Temperature 48 °F -  
Max Temperature 54 °F 52 °F 75 °F (2007)
Min Temperature 42 °F 32 °F 21 °F (2000)
Degree Days  
Heating Degree Days 17    
Moisture  
Dew Point 48 °F    
Average Humidity 96    
Maximum Humidity 100    
Minimum Humidity 89    
Precipitation  
Precipitation 0.59 in - - ()
Sea Level Pressure  
Sea Level Pressure 30.02 in    
Wind  
Wind Speed 5 mph (North)    
Max Wind Speed 10 mph    
Max Gust Speed -    
Visibility 3 miles    
Events Fog , Rain    
Averages and records for this station are not official NWS values.
T = Trace of Precipitation, MM = Missing Value Source: NWS Daily Summary

Daily Weather History Graph

Daily Weather History Graph

Search for Another Location

Airport or City:

Trip Planner

Search our weather history database for the weather conditions in past years. The results will help you decide how hot, cold, wet, or windy it might be!

Date:

Astronomy

Dec. 23, 2014 Rise Set
Actual Time 7:14 AM EST 5:03 PM EST
Civil Twilight 6:45 AM EST 5:31 PM EST
Nautical Twilight 6:14 AM EST 6:03 PM EST
Astronomical Twilight 5:43 AM EST 6:34 PM EST
Moon 8:21 AM EST (12/23) 7:11 PM EST (12/23)
Length of Visible Light 10h 45m
Length of Day
9h 49m
Waxing Crescent, 4% of the Moon is Illuminated
Dec 23
Waxing Crescent
Dec 28
First Quarter
Jan 4
Full
Jan 13
Last Quarter
Jan 20
New

Hourly Weather History & Observations

Time (EST) Temp. Windchill Dew Point Humidity Pressure Visibility Wind Dir Wind Speed Gust Speed Precip Events Conditions
12:13 AM 43.0 °F 38.8 °F 43.0 °F 100% 30.03 in 1.0 mi NNW 6.9 mph - N/A   Overcast
12:16 AM 43.0 °F 38.8 °F 43.0 °F 100% 30.03 in 0.8 mi NNW 6.9 mph - N/A   Mist
12:25 AM 44.1 °F 40.1 °F 43.0 °F 96% 30.03 in 0.8 mi North 6.9 mph - N/A   Mist
12:56 AM 43.0 °F 38.8 °F 43.0 °F 100% 30.02 in 0.8 mi NNW 6.9 mph - N/A   Mist
1:34 AM 43.0 °F 38.8 °F 43.0 °F 100% 30.00 in 1.0 mi North 6.9 mph - N/A   Mist
1:56 AM 43.0 °F 39.5 °F 42.1 °F 97% 30.01 in 2.0 mi North 5.8 mph - N/A   Overcast
2:10 AM 43.0 °F 40.3 °F 43.0 °F 100% 30.01 in 1.5 mi North 4.6 mph - N/A   Overcast
2:25 AM 43.0 °F 41.3 °F 43.0 °F 100% 30.01 in 0.8 mi North 3.5 mph - N/A   Mist
2:36 AM 43.0 °F 40.3 °F 43.0 °F 100% 30.01 in 0.5 mi NNW 4.6 mph - N/A Fog Fog
2:51 AM 42.8 °F 41.1 °F 42.8 °F 100% 30.03 in 1.0 mi NNW 3.5 mph - N/A   Mist
2:56 AM 43.0 °F - 43.0 °F 100% 30.03 in 1.2 mi Calm Calm - N/A   Overcast
3:07 AM 43.0 °F - 43.0 °F 100% 30.02 in 1.0 mi Calm Calm - N/A   Mist
3:15 AM 43.0 °F - 43.0 °F 100% 30.02 in 0.8 mi Calm Calm - N/A   Mist
3:37 AM 44.1 °F 40.8 °F 43.0 °F 96% 30.01 in 0.5 mi North 5.8 mph - N/A Fog Fog
3:56 AM 43.0 °F 39.5 °F 43.0 °F 100% 30.02 in 0.2 mi North 5.8 mph - N/A Fog Fog
4:09 AM 43.0 °F 38.8 °F 43.0 °F 100% 30.01 in 0.5 mi NNW 6.9 mph - N/A Fog Fog
4:28 AM 44.1 °F 40.8 °F 43.0 °F 96% 30.01 in 0.8 mi North 5.8 mph - N/A   Mist
4:48 AM 44.1 °F 40.8 °F 43.0 °F 96% 30.01 in 1.2 mi North 5.8 mph - N/A   Overcast
4:56 AM 44.1 °F 40.1 °F 43.0 °F 96% 30.02 in 2.5 mi North 6.9 mph - N/A   Overcast
5:03 AM 44.1 °F 38.6 °F 43.0 °F 96% 30.01 in 3.0 mi North 10.4 mph - N/A   Overcast
5:14 AM 44.1 °F 40.8 °F 43.0 °F 96% 30.00 in 2.5 mi North 5.8 mph - N/A   Overcast
5:23 AM 44.1 °F 41.5 °F 43.0 °F 96% 30.01 in 4.0 mi NNE 4.6 mph - N/A   Overcast
5:44 AM 44.1 °F 42.5 °F 43.0 °F 96% 30.02 in 7.0 mi East 3.5 mph - N/A   Overcast
5:54 AM 44.6 °F 42.2 °F 42.8 °F 93% 30.01 in 8.0 mi NE 4.6 mph - N/A   Overcast
5:56 AM 44.1 °F 42.5 °F 43.0 °F 96% 30.02 in 8.0 mi NE 3.5 mph - N/A   Overcast
6:07 AM 44.1 °F 42.5 °F 43.0 °F 96% 30.02 in 8.0 mi NE 3.5 mph - N/A   Overcast
6:33 AM 45.0 °F 42.6 °F 43.0 °F 93% 30.02 in 8.0 mi North 4.6 mph - N/A   Overcast
6:56 AM 45.0 °F 43.5 °F 43.0 °F 93% 30.04 in 8.0 mi North 3.5 mph - N/A   Overcast
7:08 AM 45.0 °F 41.8 °F 43.0 °F 93% 30.04 in 8.0 mi North 5.8 mph - N/A   Overcast
7:26 AM 45.0 °F 41.8 °F 43.0 °F 93% 30.04 in 7.0 mi North 5.8 mph - N/A   Overcast
7:56 AM 45.0 °F 41.8 °F 43.0 °F 93% 30.05 in 7.0 mi NNE 5.8 mph - N/A   Overcast
8:13 AM 45.0 °F 41.8 °F 43.0 °F 93% 30.05 in 6.0 mi NNE 5.8 mph - N/A   Overcast
8:39 AM 45.0 °F 41.8 °F 44.1 °F 97% 30.05 in 3.0 mi NE 5.8 mph - N/A   Overcast
8:53 AM 44.6 °F 41.4 °F 44.6 °F 100% 30.06 in 2.5 mi NE 5.8 mph - N/A   Overcast
8:56 AM 45.0 °F 42.6 °F 44.1 °F 97% 30.06 in 2.0 mi NE 4.6 mph - N/A   Overcast
9:09 AM 45.0 °F 41.8 °F 44.1 °F 97% 30.05 in 1.5 mi ENE 5.8 mph - N/A   Overcast
9:56 AM 46.9 °F - 45.0 °F 93% 30.07 in 1.5 mi NNE 3.5 mph - N/A   Overcast
10:34 AM 46.9 °F - 46.0 °F 97% 30.05 in 0.5 mi NE 3.5 mph - N/A   Overcast
10:52 AM 48.2 °F - 46.4 °F 93% 30.05 in 0.5 mi North 4.6 mph - N/A   Overcast
10:56 AM 48.0 °F - 46.9 °F 96% 30.07 in 0.5 mi North 4.6 mph - N/A   Overcast
11:22 AM 48.9 °F - 48.0 °F 97% 30.05 in 0.8 mi North 4.6 mph - N/A   Overcast
11:33 AM 48.9 °F - 48.0 °F 97% 30.06 in 1.0 mi NNW 4.6 mph - N/A   Overcast
11:40 AM 48.9 °F - 48.0 °F 97% 30.06 in 1.5 mi NNW 4.6 mph - N/A   Overcast
11:56 AM 50.0 °F - 48.0 °F 93% 30.05 in 1.5 mi Calm Calm - N/A   Overcast
12:23 PM 51.1 °F - 48.9 °F 92% 30.04 in 2.0 mi NW 3.5 mph - N/A   Overcast
12:35 PM 51.1 °F - 48.9 °F 92% 30.03 in 2.0 mi North 4.6 mph - N/A   Overcast
12:43 PM 51.1 °F - 48.9 °F 92% 30.03 in 3.0 mi North 3.5 mph - N/A   Overcast
12:56 PM 52.0 °F - 48.9 °F 89% 30.04 in 8.0 mi NE 3.5 mph - N/A   Overcast
1:08 PM 52.0 °F - 48.9 °F 89% 30.03 in 8.0 mi Calm Calm - N/A   Overcast
1:41 PM 52.0 °F - 48.9 °F 89% 30.02 in 7.0 mi North 3.5 mph - N/A   Overcast
1:56 PM 53.1 °F - 50.0 °F 89% 30.03 in 7.0 mi North 4.6 mph - N/A   Overcast
2:49 PM 53.1 °F - 50.0 °F 89% 30.02 in 8.0 mi NNW 3.5 mph - N/A   Overcast
2:56 PM 53.1 °F - 51.1 °F 93% 30.03 in 8.0 mi North 3.5 mph - N/A   Overcast
3:11 PM 53.1 °F - 51.1 °F 93% 30.01 in 8.0 mi North 5.8 mph - N/A   Overcast
3:56 PM 53.1 °F - 51.1 °F 93% 30.03 in 9.0 mi NNE 5.8 mph - N/A   Overcast
4:10 PM 53.1 °F - 51.1 °F 93% 30.01 in 8.0 mi North 9.2 mph - N/A   Overcast
4:56 PM 53.1 °F - 51.1 °F 93% 30.03 in 7.0 mi NE 3.5 mph - 0.00 in Rain Light Rain
5:30 PM 53.1 °F - 51.1 °F 93% 30.00 in 5.0 mi NE 4.6 mph - 0.00 in   Overcast
5:56 PM 53.1 °F - 52.0 °F 96% 30.00 in 5.0 mi NE 3.5 mph - 0.00 in   Overcast
6:47 PM 54.0 °F - 52.0 °F 93% 29.99 in 4.0 mi ENE 4.6 mph - N/A   Overcast
6:56 PM 54.0 °F - 52.0 °F 93% 30.00 in 4.0 mi NE 3.5 mph - N/A   Overcast
7:36 PM 54.0 °F - 53.1 °F 97% 29.99 in 3.0 mi North 3.5 mph - N/A   Overcast
7:44 PM 54.0 °F - 53.1 °F 97% 30.00 in 1.8 mi NNE 3.5 mph - N/A   Overcast
7:51 PM 53.6 °F - 53.6 °F 100% 30.00 in 0.8 mi Calm Calm - N/A   Mist
7:56 PM 54.0 °F - 53.1 °F 97% 30.01 in 0.5 mi Calm Calm - N/A Fog Fog
8:16 PM 53.1 °F - 53.1 °F 100% 30.00 in 0.2 mi Calm Calm - 0.00 in Fog , Rain Light Rain
8:56 PM 53.1 °F - 53.1 °F 100% 30.01 in 0.5 mi North 3.5 mph - 0.00 in Fog , Rain Light Rain
9:04 PM 53.1 °F - 53.1 °F 100% 30.00 in 0.5 mi Calm Calm - 0.00 in Fog Fog
9:22 PM 54.0 °F - 53.1 °F 97% 29.99 in 0.8 mi NW 4.6 mph - 0.00 in   Mist
9:28 PM 54.0 °F - 53.1 °F 97% 29.99 in 1.0 mi NNW 3.5 mph - 0.00 in Rain Light Rain
9:31 PM 54.0 °F - 53.1 °F 97% 29.99 in 1.2 mi NNW 3.5 mph - 0.00 in Rain Light Rain
9:56 PM 54.0 °F - 53.1 °F 97% 30.00 in 1.8 mi NNW 3.5 mph - 0.01 in Rain Light Rain
10:04 PM 54.0 °F - 53.1 °F 97% 29.99 in 2.5 mi NW 5.8 mph - 0.00 in Rain Light Rain
10:17 PM 54.0 °F - 53.1 °F 97% 30.02 in 1.0 mi South 3.5 mph - 0.15 in Rain Heavy Rain
10:24 PM 54.0 °F - 53.1 °F 97% 30.01 in 0.5 mi Variable 6.9 mph - 0.41 in Fog , Rain Heavy Rain
10:27 PM 54.0 °F - 53.1 °F 97% 30.00 in 0.8 mi WNW 5.8 mph - 0.47 in Rain Heavy Rain
10:34 PM 54.0 °F - 54.0 °F 100% 30.00 in 1.0 mi Calm Calm - 0.54 in Rain Heavy Rain
10:39 PM 53.1 °F - 53.1 °F 100% 30.00 in 2.0 mi NW 5.8 mph - 0.55 in Rain Light Rain
10:41 PM 53.1 °F - 53.1 °F 100% 30.00 in 3.0 mi North 4.6 mph - 0.55 in Rain Light Rain
10:47 PM 54.0 °F - 53.1 °F 97% 30.00 in 5.0 mi ENE 3.5 mph - 0.55 in Rain Light Rain
10:56 PM 54.0 °F - 54.0 °F 100% 30.01 in 4.0 mi East 3.5 mph - 0.55 in Rain Light Rain
11:07 PM 54.0 °F - 53.1 °F 97% 29.99 in 3.0 mi ENE 6.9 mph - 0.00 in Rain Light Rain
11:52 PM 53.6 °F - 53.6 °F 100% 29.99 in 4.0 mi WNW 3.5 mph - 0.02 in Rain Light Rain
11:56 PM 54.0 °F - 54.0 °F 100% 29.99 in 4.0 mi Calm Calm - 0.03 in Rain Light Rain